Regional Weather Roundup
Issued by NWS Sterling, VA

Home | Current Version | Previous Version | Graphics & Text | Print | Product List | Glossary On
Versions: 1 2 3 4 5 6 7 8 9 10 11 12 13 14 15 16 17 18 19 20 21 22 23 24 25 26 27
000
ASUS41 KLWX 050710
RWRLWX

REGIONAL WEATHER ROUNDUP
NATIONAL WEATHER SERVICE BALTIMORE MD/WASHINGTON DC
200 AM EST MON DEC 05 2016

Note: "FAIR" indicates few or no clouds below 12,000 feet
with no significant weather and/or obstructions to visibility.
 TC=TEMPERATURE CELSIUS

 * =Non NWS site. Station does not report precipitation (e.g. rain,
    snow, etc.), thunder, or fog.

DCZ001-MDZ009-015-VAZ040>042-051-053>054-050800-
WASHINGTON METRO

CITY           SKY/WX    TMP DP  RH WIND       PRES   REMARKS
WASHINGTON NAT LGT RAIN  40  39  97 S9        30.06S FOG
DULLES         LGT RAIN  38  36  92 S10       30.02F FOG
ANDREWS AFB    LGT RAIN  38  37  94 S7        30.04R FOG
FT BELVOIR     MIX PCPN  39  37  92 VRB3      30.06R FOG
QUANTICO       LGT RAIN  40  37  89 SW6       30.08R FOG
COLLEGE PARK*  CLOUDY    37  36  93 S5        30.05S
LEESBURG*      LGT RAIN  39  39 100 MISG      30.02F
MANASSAS*      CLOUDY    39  37  93 S7        30.05S
GAITHERSBURG*  CLOUDY    37  34  87 S8        30.06F

$$

MDZ006>007-011-014-050800-
BALTIMORE METRO

CITY           SKY/WX    TMP DP  RH WIND       PRES   REMARKS
BWI AIRPORT    LGT RAIN  38  38 100 S6        30.05S FOG
MD SCIENCE CTR   N/A     40  36  86 MISG      30.05S
ANNAPOLIS      RAIN      42  38  85 S8        30.04F FOG
FORT MEADE*    CLOUDY    37  36  93 S3        30.07S

$$

MDZ012-015-019>023-050800-
MARYLAND EASTERN SHORE

CITY           SKY/WX    TMP DP  RH WIND       PRES   REMARKS
OCEAN CITY     LGT RAIN  43  39  86 VRB6      30.08F
SALISBURY      LGT RAIN  39  38  96 SE5       30.06F
BAY BRIDGE AP* RAIN      41  39  93 S9        30.05S FOG
CAMBRIDGE*     CLOUDY    37  37 100 SE8       30.05F
EASTON*        RAIN      41  38  90 S9        30.09S

$$

MDZ017>025-050800-
SOUTHERN MARYLAND

CITY           SKY/WX    TMP DP  RH WIND       PRES   REMARKS
PATUXENT RIVER LGT RAIN  41  38  89 S5        30.05F FOG
ST INIGOES     LGT RAIN  43  41  93 SE6       30.05F
LEONARDTOWN*   CLOUDY    39  37  93 CALM      30.06S

$$

MDZ003>005-050800-
NORTH CENTRAL MARYLAND

CITY           SKY/WX    TMP DP  RH WIND       PRES   REMARKS
FREDERICK*     RAIN      37  37 100 S9        30.03F
HAGERSTOWN APT LGT RAIN  38  35  89 S14       29.96F
WESTMINSTER*   LGT RAIN  36  36 100 S9        29.99F WCI  29

$$

MDZ501>502-050800-
WESTERN MARYLAND

CITY           SKY/WX    TMP DP  RH WIND       PRES   REMARKS
OAKLAND*       CLOUDY    37  37 100 SW16G26   29.84S FOG     WCI  28
CUMBERLAND*    NOT AVBL

$$

VAZ025>031-050800-
SHENANDOAH VALLEY

CITY           SKY/WX    TMP DP  RH WIND       PRES   REMARKS
WINCHESTER*    LGT RAIN  36  34  93 S7        29.97S
FRONT ROYAL*   CLOUDY    37  36  93 CALM      29.96F
LURAY*         DRIZZLE   37  37 100 SW8       29.97F
NEW MARKET*    CLOUDY    38  35  89 SW8       29.96F
STAUNTON*      DRIZZLE   37  36  96 S6        29.99F
WAYNESBORO*    CLOUDY    37  36  96 S3        29.98F

$$

WVZ021-048>050-054>055-050800-
EASTERN WEST VIRGINIA PANHANDLE

CITY           SKY/WX    TMP DP  RH WIND       PRES   REMARKS
MARTINSBURG    LGT RAIN  37  36  96 S6        29.96F
PETERSBURG*    CLOUDY    44  37  78 S9        29.92S

$$

VAZ036>039-050-050800-
CENTRAL FOOTHILLS

CITY           SKY/WX    TMP DP  RH WIND       PRES   REMARKS
CHARLOTTESVILL LGT RAIN  39  37  92 S9        30.03F
CULPEPER*      LGT RAIN  39  39  98 CALM      30.05F
ORANGE*        HVY RAIN  37  37 100 S6        30.06S
GORDONSVILLE*  CLOUDY    38  38  99 S6        30.04F FOG
WARRENTON*     LGT RAIN  39  35  84 S3        30.04S

$$

VAZ055>057-050800-
NORTH AND CENTRAL PIEDMONT

CITY           SKY/WX    TMP DP  RH WIND       PRES   REMARKS
FREDERICKSBRG* RAIN      40  40 100 S5        30.06R
STAFFORD*      RAIN      38  38 100 S3        30.10R

$$

NCZ024-NYZ072-PAZ021-071-VAZ022-071-050800-
OTHER REGIONAL OBSERVATIONS

CITY           SKY/WX    TMP DP  RH WIND       PRES   REMARKS
NEW YORK CITY  CLOUDY    41  25  53 MISG      30.08F
PHILADELPHIA   LGT RAIN  41  35  79 S9        30.08R
PITTSBURGH     CLOUDY    41  39  93 SW9       29.85R
ROANOKE        LGT RAIN  37  37 100 SE3       30.03F FOG
RICHMOND       RAIN      40  39  97 SW5       30.08R FOG
RALEIGH        RAIN      43  41  93 N3        30.04F FOG

$$

ANZ530>537-050800-
MARINE OBSERVATIONS

STATION/POSITION TIME  TEMP    WIND        PRES
                       AIR SEA DIR/SP/G
                 (UTC) (F)     (DEG/KT/KT) (MB)
THOMAS PT LIGHT  0700   42 48  200/ 19/ 20   N/A
BALT KEY BRIDGE  0642   39     190/  7/  9 1017.8R
COVE POINT       0642   41     190/ 10/ 14 1017.9F
LEWISETTA        0642   42 48  160/  6/  7 1017.0F
SOLOMONS ISLAND  0642   41 51  170/  7/ 10   N/A
PINEY POINT      0642          170/ 14/ 16   N/A

$$





USA.gov is the U.S. government's official web portal to all federal, state and local government web resources and services.